Miami, FL

10:29 AM EST on December 07, 2016 (GMT -0500)
Miami International

Weather History for KMIA - June, 2013

Change the Weather History Date:

Sunday, June 30, 2013

  Actual Average Record
Temperature  
Mean Temperature 84 °F 83 °F  
Max Temperature 90 °F 90 °F 95 °F (1993)
Min Temperature 77 °F 77 °F 68 °F (1938)
Degree Days  
Heating Degree Days 0 0  
Month to date heating degree days 0 0  
Since 1 June heating degree days 0 0  
Since 1 July heating degree days 70 128  
Cooling Degree Days 19 18  
Month to date cooling degree days 548 532  
Year to date cooling degree days 1993 1888  
Since 1 June cooling degree days 548 532  
Growing Degree Days 34 (Base 50)    
Moisture  
Dew Point 74 °F    
Average Humidity 74    
Maximum Humidity 91    
Minimum Humidity 56    
Precipitation  
Precipitation 0.01 in 0.32 in 3.19 in (2011)
Month to date precipitation 6.18 9.67  
Year to date precipitation 25.55 25.02  
Snow  
Snow 0.00 in - - ()
Month to date snowfall 0.0  
Since 1 June snowfall 0.0  
Since 1 July snowfall 0.0  
Snow Depth 0.00 in    
Sea Level Pressure  
Sea Level Pressure 29.92 in    
Wind  
Wind Speed 9 mph (South)    
Max Wind Speed 21 mph    
Max Gust Speed 29 mph    
Visibility 10 miles    
Events Rain    
T = Trace of Precipitation, MM = Missing Value Source: NWS Daily Summary

Daily Weather History Graph

Daily Weather History Graph

Search for Another Location

Airport or City:

Trip Planner

Search our weather history database for the weather conditions in past years. The results will help you decide how hot, cold, wet, or windy it might be!

Date:

Astronomy

Jun. 30, 2013 Rise Set
Actual Time 6:33 AM EDT 8:16 PM EDT
Civil Twilight 6:07 AM EDT 8:42 PM EDT
Nautical Twilight 5:36 AM EDT 9:13 PM EDT
Astronomical Twilight 5:03 AM EDT 9:46 PM EDT
Moon 1:02 AM EDT (6/30) 1:54 PM EDT (6/30)
Length of Visible Light 14h 35m
Length of Day
13h 43m
Last Quarter, 45% of the Moon is Illuminated
Jun 30
Last Quarter
Jul 8
New
Jul 15
First Quarter
Jul 22
Full
Jul 29
Last Quarter

Hourly Weather History & Observations

Time (EDT) Temp. Heat Index Dew Point Humidity Pressure Visibility Wind Dir Wind Speed Gust Speed Precip Events Conditions
12:53 AM 78.1 °F - 73.0 °F 84% 29.91 in 10.0 mi South 4.6 mph - N/A   Mostly Cloudy
1:53 AM 77.0 °F - 73.0 °F 88% 29.89 in 10.0 mi South 4.6 mph - N/A   Mostly Cloudy
2:53 AM 77.0 °F - 73.0 °F 88% 29.90 in 10.0 mi SSW 3.5 mph - N/A   Mostly Cloudy
3:53 AM 78.1 °F - 73.9 °F 87% 29.88 in 10.0 mi South 5.8 mph - N/A   Mostly Cloudy
4:53 AM 78.1 °F - 75.0 °F 90% 29.88 in 10.0 mi South 4.6 mph - N/A   Mostly Cloudy
5:53 AM 78.1 °F - 75.0 °F 90% 29.89 in 10.0 mi South 3.5 mph - N/A   Mostly Cloudy
6:53 AM 78.1 °F - 75.0 °F 90% 29.90 in 10.0 mi South 5.8 mph - N/A   Mostly Cloudy
7:53 AM 80.1 °F 85.1 °F 75.0 °F 85% 29.91 in 10.0 mi South 9.2 mph - N/A   Mostly Cloudy
8:53 AM 82.9 °F 90.2 °F 75.0 °F 77% 29.92 in 10.0 mi South 10.4 mph - N/A   Mostly Cloudy
9:53 AM 84.9 °F 92.1 °F 73.9 °F 69% 29.92 in 10.0 mi South 10.4 mph - N/A   Mostly Cloudy
10:53 AM 84.0 °F 90.2 °F 73.0 °F 69% 29.93 in 10.0 mi South 10.4 mph - N/A   Mostly Cloudy
11:53 AM 87.1 °F 94.5 °F 73.0 °F 63% 29.92 in 10.0 mi SSE 16.1 mph 23.0 mph 0.00 in   Mostly Cloudy
12:53 PM 88.0 °F 97.5 °F 75.0 °F 65% 29.92 in 10.0 mi SSE 16.1 mph 24.2 mph 0.00 in   Mostly Cloudy
1:53 PM 87.1 °F 95.4 °F 73.9 °F 65% 29.91 in 10.0 mi SE 6.9 mph 18.4 mph 0.01 in   Mostly Cloudy
2:53 PM 89.1 °F 96.0 °F 72.0 °F 57% 29.90 in 10.0 mi South 15.0 mph 25.3 mph N/A   Mostly Cloudy
3:53 PM 87.1 °F 95.4 °F 73.9 °F 65% 29.89 in 10.0 mi SSE 15.0 mph 24.2 mph N/A   Mostly Cloudy
4:53 PM 86.0 °F 93.0 °F 73.0 °F 65% 29.90 in 10.0 mi SSE 13.8 mph 21.9 mph N/A   Mostly Cloudy
5:53 PM 84.0 °F 90.2 °F 73.0 °F 69% 29.90 in 10.0 mi South 15.0 mph 20.7 mph 0.00 in Rain Light Rain
6:53 PM 84.0 °F 89.6 °F 72.0 °F 67% 29.90 in 10.0 mi South 9.2 mph 20.7 mph 0.00 in   Mostly Cloudy
7:53 PM 79.0 °F - 73.0 °F 82% 29.93 in 10.0 mi SE 6.9 mph - N/A   Mostly Cloudy
8:53 PM 81.0 °F 86.2 °F 73.9 °F 79% 29.94 in 10.0 mi South 6.9 mph - N/A   Mostly Cloudy
9:53 PM 80.1 °F 84.5 °F 73.9 °F 81% 29.95 in 10.0 mi SSE 6.9 mph - N/A   Mostly Cloudy
10:53 PM 80.1 °F 84.5 °F 73.9 °F 81% 29.97 in 10.0 mi South 8.1 mph 18.4 mph N/A   Mostly Cloudy
11:53 PM 80.1 °F 84.2 °F 73.0 °F 79% 29.97 in 10.0 mi South 6.9 mph 16.1 mph N/A   Mostly Cloudy